Location: Wien
(48.2082°N, 16.3738°E)
Time: 22:06:56
(UTC+02:00)

DOVE 4 - Pass Details

Date: 24 March 2019
Orbit: 589 x 801 km, 97.8° (Epoch: 14 October)

Event Time Altitude Azimuth Distance (km) Brightness Sun altitude
Rises 01:58:49 0° 29° (NNE) 2,942 ? -34.3°
Reaches altitude 10° 02:01:59 10° 54° (NE) 1,990 ? -34.0°
Enters shadow 02:04:07 15° 83° (E) 1,681 ? -33.8°
